When you browse on this site, cookies collect data to enhance your experience and personalize the content and advertising you see.
Visit our Privacy Policy to learn more. By continuing to use the site, you agree to this use of cookies and data.
  • En España
  • Lista de países
  • Para 7 días
  • Temperatura del agua
  • El tiempo en el mapa
  • Informadores
  • user-avatar
    Iniciar sesión

    Tiempo cada hora Shibam

    Hoy, 21 Enero, Martes

    Tiempo Temperatura Precipitaciones Viento Presión Humedad
    00:00 +11°C° 0 mm 0 mps 560 mmHg 51%
    01:00 +10°C° 0 mm 0 mps 559 mmHg 52%
    02:00 +10°C° 0 mm 0 mps 559 mmHg 54%
    03:00 +9°C° 0 mm 0 mps 558 mmHg 57%
    04:00 +9°C° 0 mm 0 mps 558 mmHg 60%
    05:00 +8°C° 0 mm 0 mps 558 mmHg 62%
    06:00 +9°C° 0 mm 1 mps 558 mmHg 64%
    07:00 +10°C° 0 mm 1 mps 559 mmHg 62%
    08:00 +11°C° 0 mm 1 mps 560 mmHg 61%
    09:00 +13°C° 0 mm 1 mps 561 mmHg 59%
    10:00 +14°C° 0 mm 2 mps 561 mmHg 55%
    11:00 +14°C° 0 mm 3 mps 561 mmHg 52%
    12:00 +15°C° 0 mm 4 mps 561 mmHg 48%
    13:00 +15°C° 0 mm 4 mps 561 mmHg 51%
    14:00 +15°C° 0 mm 4 mps 560 mmHg 54%
    15:00 +15°C° 0 mm 4 mps 559 mmHg 57%
    16:00 +14°C° 0.1 mm 4 mps 559 mmHg 64%
    17:00 +13°C° 0.1 mm 3 mps 559 mmHg 70%
    18:00 +12°C° 0.1 mm 3 mps 559 mmHg 76%
    19:00 +13°C° 0 mm 2 mps 559 mmHg 78%
    20:00 +12°C° 0 mm 1 mps 559 mmHg 80%
    21:00 +12°C° 0 mm 1 mps 559 mmHg 81%
    22:00 +12°C° 0 mm 1 mps 559 mmHg 83%
    23:00 +11°C° 0 mm 1 mps 559 mmHg 84%

    Mañana, 22 Enero, Miércoles

    Tiempo Temperatura Precipitaciones Viento Presión Humedad
    00:00 +11°C° 0 mm 1 mps 558 mmHg 85%
    01:00 +11°C° 0 mm 1 mps 558 mmHg 87%
    02:00 +10°C° 0 mm 1 mps 557 mmHg 89%
    03:00 +10°C° 0 mm 1 mps 557 mmHg 91%
    04:00 +10°C° 0 mm 1 mps 557 mmHg 90%
    05:00 +9°C° 0 mm 1 mps 557 mmHg 90%
    06:00 +9°C° 0 mm 1 mps 557 mmHg 90%
    07:00 +9°C° 0 mm 2 mps 558 mmHg 86%
    08:00 +10°C° 0 mm 2 mps 558 mmHg 82%
    09:00 +10°C° 0 mm 3 mps 559 mmHg 78%
    10:00 +11°C° 0 mm 3 mps 559 mmHg 73%
    11:00 +12°C° 0 mm 4 mps 559 mmHg 68%
    12:00 +13°C° 0 mm 4 mps 559 mmHg 64%
    13:00 +13°C° 0 mm 4 mps 559 mmHg 64%
    14:00 +13°C° 0 mm 4 mps 558 mmHg 64%
    15:00 +13°C° 0 mm 4 mps 558 mmHg 63%
    16:00 +13°C° 0.1 mm 4 mps 558 mmHg 69%
    17:00 +12°C° 0.1 mm 3 mps 558 mmHg 75%
    18:00 +11°C° 0.1 mm 3 mps 558 mmHg 80%
    19:00 +12°C° 0.1 mm 2 mps 558 mmHg 82%
    20:00 +12°C° 0.1 mm 2 mps 558 mmHg 83%
    21:00 +10°C° 0.1 mm 2 mps 558 mmHg 85%
    22:00 +10°C° 0 mm 2 mps 558 mmHg 87%
    23:00 +10°C° 0 mm 2 mps 558 mmHg 89%

    Pasado mañana, 23 Enero, Jueves

    Tiempo Temperatura Precipitaciones Viento Presión Humedad
    00:00 +10°C° 0 mm 2 mps 558 mmHg 91%
    01:00 +10°C° 0.1 mm 2 mps 557 mmHg 91%
    02:00 +10°C° 0.1 mm 2 mps 557 mmHg 90%
    03:00 +10°C° 0.1 mm 1 mps 557 mmHg 90%
    04:00 +10°C° 0.1 mm 1 mps 557 mmHg 90%
    05:00 +10°C° 0.1 mm 1 mps 557 mmHg 91%
    06:00 +10°C° 0.1 mm 1 mps 557 mmHg 91%
    07:00 +10°C° 0.1 mm 2 mps 558 mmHg 86%
    08:00 +10°C° 0.1 mm 2 mps 559 mmHg 82%
    09:00 +12°C° 0.1 mm 2 mps 559 mmHg 78%
    10:00 +12°C° 0.2 mm 3 mps 559 mmHg 76%
    11:00 +12°C° 0.2 mm 3 mps 559 mmHg 75%
    12:00 +13°C° 0.2 mm 4 mps 560 mmHg 73%
    13:00 +13°C° 0.3 mm 4 mps 559 mmHg 75%
    14:00 +12°C° 0.3 mm 4 mps 559 mmHg 77%
    15:00 +12°C° 0.3 mm 4 mps 558 mmHg 79%
    16:00 +12°C° 0.2 mm 3 mps 558 mmHg 81%
    17:00 +11°C° 0.2 mm 3 mps 558 mmHg 83%
    18:00 +12°C° 0.2 mm 2 mps 559 mmHg 85%
    19:00 +12°C° 0 mm 2 mps 559 mmHg 84%
    20:00 +11°C° 0 mm 1 mps 559 mmHg 84%
    21:00 +11°C° 0 mm 1 mps 559 mmHg 83%
    22:00 +11°C° 0 mm 1 mps 559 mmHg 85%
    23:00 +11°C° 0 mm 1 mps 559 mmHg 86%

    24 Enero, Viernes

    Tiempo Temperatura Precipitaciones Viento Presión Humedad
    00:00 +10°C° 0 mm 0 mps 559 mmHg 88%
    01:00 +9°C° 0 mm 0 mps 559 mmHg 89%
    02:00 +9°C° 0 mm 0 mps 558 mmHg 91%
    03:00 +9°C° 0 mm 0 mps 558 mmHg 92%
    04:00 +9°C° 0 mm 0 mps 558 mmHg 92%
    05:00 +8°C° 0 mm 0 mps 558 mmHg 91%
    06:00 +8°C° 0 mm 0 mps 559 mmHg 91%
    07:00 +10°C° 0 mm 1 mps 559 mmHg 84%
    08:00 +11°C° 0 mm 1 mps 560 mmHg 78%
    09:00 +12°C° 0 mm 1 mps 561 mmHg 71%
    10:00 +13°C° 0 mm 2 mps 561 mmHg 68%
    11:00 +13°C° 0 mm 3 mps 561 mmHg 65%
    12:00 +14°C° 0 mm 4 mps 561 mmHg 62%
    13:00 +14°C° 0.1 mm 4 mps 561 mmHg 63%
    14:00 +14°C° 0.1 mm 4 mps 561 mmHg 65%
    15:00 +14°C° 0.1 mm 4 mps 560 mmHg 67%
    16:00 +13°C° 0 mm 3 mps 560 mmHg 70%
    17:00 +13°C° 0 mm 3 mps 560 mmHg 72%
    18:00 +13°C° 0 mm 2 mps 560 mmHg 75%
    19:00 +13°C° 0 mm 2 mps 560 mmHg 75%
    20:00 +13°C° 0 mm 1 mps 561 mmHg 74%
    21:00 +13°C° 0 mm 1 mps 561 mmHg 74%
    22:00 +12°C° 0 mm 1 mps 561 mmHg 75%
    23:00 +11°C° 0 mm 0 mps 561 mmHg 75%

    25 Enero, Sábado

    Tiempo Temperatura Precipitaciones Viento Presión Humedad
    00:00 +10°C° 0 mm 0 mps 560 mmHg 76%
    01:00 +10°C° 0 mm 0 mps 560 mmHg 79%
    02:00 +10°C° 0 mm 0 mps 560 mmHg 81%
    03:00 +9°C° 0 mm 0 mps 559 mmHg 83%
    04:00 +9°C° 0 mm 0 mps 559 mmHg 84%
    05:00 +9°C° 0 mm 0 mps 560 mmHg 84%
    06:00 +8°C° 0 mm 0 mps 560 mmHg 84%
    07:00 +11°C° 0 mm 1 mps 561 mmHg 77%
    08:00 +12°C° 0 mm 1 mps 562 mmHg 69%
    09:00 +13°C° 0 mm 1 mps 562 mmHg 61%
    10:00 +14°C° 0 mm 2 mps 563 mmHg 57%
    11:00 +14°C° 0 mm 3 mps 563 mmHg 53%
    12:00 +17°C° 0 mm 3 mps 563 mmHg 48%
    13:00 +16°C° 0 mm 3 mps 562 mmHg 50%
    14:00 +16°C° 0 mm 3 mps 562 mmHg 51%
    15:00 +15°C° 0 mm 4 mps 562 mmHg 53%
    16:00 +16°C° 0.1 mm 3 mps 562 mmHg 57%
    17:00 +15°C° 0.1 mm 2 mps 561 mmHg 61%
    18:00 +14°C° 0.1 mm 1 mps 561 mmHg 64%
    19:00 +14°C° 0 mm 1 mps 561 mmHg 63%
    20:00 +14°C° 0 mm 1 mps 562 mmHg 61%
    21:00 +14°C° 0 mm 2 mps 562 mmHg 59%
    22:00 +13°C° 0 mm 1 mps 562 mmHg 60%
    23:00 +13°C° 0 mm 1 mps 561 mmHg 61%

    26 Enero, Domingo

    Tiempo Temperatura Precipitaciones Viento Presión Humedad
    00:00 +13°C° 0 mm 1 mps 561 mmHg 62%
    01:00 +12°C° 0 mm 1 mps 561 mmHg 64%
    02:00 +12°C° 0 mm 1 mps 560 mmHg 67%
    03:00 +11°C° 0 mm 1 mps 560 mmHg 69%
    04:00 +11°C° 0 mm 1 mps 560 mmHg 71%
    05:00 +10°C° 0 mm 1 mps 560 mmHg 73%
    06:00 +10°C° 0 mm 1 mps 560 mmHg 75%
    07:00 +11°C° 0 mm 1 mps 561 mmHg 72%
    08:00 +11°C° 0 mm 1 mps 562 mmHg 68%
    09:00 +12°C° 0 mm 1 mps 562 mmHg 65%
    10:00 +13°C° 0 mm 2 mps 563 mmHg 62%
    11:00 +14°C° 0 mm 2 mps 563 mmHg 59%
    12:00 +16°C° 0 mm 2 mps 563 mmHg 56%
    13:00 +16°C° 0 mm 3 mps 563 mmHg 57%
    14:00 +16°C° 0 mm 3 mps 562 mmHg 57%
    15:00 +15°C° 0 mm 4 mps 562 mmHg 58%
    16:00 +14°C° 0 mm 3 mps 562 mmHg 63%
    17:00 +14°C° 0 mm 2 mps 561 mmHg 67%
    18:00 +14°C° 0 mm 2 mps 561 mmHg 72%
    19:00 +13°C° 0 mm 2 mps 561 mmHg 73%
    20:00 +12°C° 0 mm 1 mps 561 mmHg 74%
    21:00 +12°C° 0 mm 1 mps 561 mmHg 75%
    22:00 +12°C° 0 mm 1 mps 561 mmHg 78%
    23:00 +11°C° 0 mm 1 mps 561 mmHg 80%
    Mostrar más